User: anonymous   Login
Location: Hokitika
(42.7170°S, 170.9670°E)
Time: 05:34:50
(UTC+13:00)
Language:

Cosmos 1709 Rocket - Orbit

View from above orbital plane
View from above orbital plane
View from above satellite
View from above satellite

Ground track
Ground track

The orbit data is extracted from the following two-line orbital elements,

1 16369U 85116B   19286.89394152 -.00000067 +00000-0 -82752-4 0  9996
2 16369 082.9355 077.0077 0035300 304.4765 164.7738 13.76842748698466
Epoch (UTC): 13 October 2019 21:27:16
Eccentricity: 0.0035300
inclination: 82.9355°
perigee height: 949 km
apogee height: 1001 km
right ascension of ascending node: 77.0077°
argument of perigee: 304.4765°
revolutions per day: 13.76842748
mean anomaly at epoch: 164.7738°
orbit number at epoch: 69846

The dashed part of the orbit path shows where the satellite is in the earth's shadow,  

DLR